ONEWEB-0349 (49281 NORAD) Tracking and Keplerian Element Data

This shows tracking and keplerian element data for the satellite.

Feedback or suggestion? Click here.




ElementValue
Catalog49281
NameONEWEB-0349
Epoch Orbit354
Epoch Day339.91667824
Epoch Year2021
RAAN274.99
Inclination87.2049
Eccentricity0.0014643
Argument of Perigee79.9641
Mean Anonmoly35.029
Mean Motion14.90982973
Decay Rate-0.00051995
L11 49281U 21090C 21339.91667824 -.00051995 00000+0 -53019-2 0 9997
L22 49281 87.2049 274.9900 0014643 79.9641 35.0290 14.90982973 3544

Live tracking and technical data element details for ONEWEB-0349 (NORAD 49281). ONEWEB-0349 can be tracked NOW for your location showing map with azimuth and elevation plus other details from your city location.

Track the satellite on the map from your city or location and see movement details for azimuth, elevation, latitude, longitude, range, height, and movement on the map or in text.







IsCatalogInMostPopularTable: catalog: 49281, numindb: 4
Update: records affected: 1



GetName: 49281 ONEWEB-0349

Hit Count: updated at: Mon, 06 Dec 2021 15:48:43 GMT